This is the latest recevied weather packets stored in our database for station/object EB2BAG-11. If no packets are shown the sender has not sent any weather packets the latest 10 day(s).
| Time | Temp. | Humidity | Pressure | Rain* | Wind** | Luminosity | Snow |
|---|---|---|---|---|---|---|---|
| 1777876560 | 16.11° C | 85% | 1013.8 hPa | - | - | - | - |
| 1777875359 | 16.11° C | 84% | 1013.6 hPa | - | - | - | - |
| 1777874159 | 15.56° C | 86% | 1013.6 hPa | - | - | - | - |
| 1777872959 | 16.11° C | 85% | 1013.4 hPa | - | - | - | - |
| 1777871759 | 16.11° C | 84% | 1013.4 hPa | - | - | - | - |
| 1777870559 | 16.11° C | 83% | 1013.4 hPa | - | - | - | - |
| 1777869359 | 15.56° C | 85% | 1013.5 hPa | - | - | - | - |
| 1777868159 | 16.11° C | 83% | 1013.5 hPa | - | - | - | - |
| 1777866959 | 16.11° C | 84% | 1013.6 hPa | - | - | - | - |
| 1777865759 | 16.11° C | 84% | 1013.7 hPa | - | - | - | - |
| 1777864559 | 16.11° C | 83% | 1013.7 hPa | - | - | - | - |
| 1777863359 | 15.56° C | 86% | 1013.8 hPa | - | - | - | - |
| 1777862158 | 16.11° C | 85% | 1013.7 hPa | - | - | - | - |
| 1777860958 | 16.11° C | 84% | 1013.8 hPa | - | - | - | - |
| 1777859758 | 15.56° C | 85% | 1013.9 hPa | - | - | - | - |
| 1777858558 | 15.56° C | 85% | 1014 hPa | - | - | - | - |
| 1777857358 | 15.56° C | 86% | 1013.8 hPa | - | - | - | - |
| 1777856158 | 15.56° C | 86% | 1013.9 hPa | - | - | - | - |
| 1777854958 | 15.56° C | 85% | 1013.7 hPa | - | - | - | - |
| 1777853758 | 16.11° C | 84% | 1013.6 hPa | - | - | - | - |
| 1777852558 | 16.11° C | 83% | 1013.8 hPa | - | - | - | - |
| 1777851358 | 16.67° C | 87% | 1013.7 hPa | - | - | - | - |
| 1777850158 | 17.22° C | 87% | 1013.4 hPa | - | - | - | - |
| 1777848958 | 16.67° C | 85% | 1013 hPa | - | - | - | - |
| 1777847757 | 16.67° C | 86% | 1012.7 hPa | - | - | - | - |
* Rain since midnight (hover to see other rain measurements)
** Current wind speed in m/s (hover to see current wind gust speed)